NUSAT-5 (MARYAM) (43204 NORAD) Tracking and Keplerian Element Data

This shows tracking and keplerian element data for the satellite.

Feedback or suggestion? Click here.




ElementValue
Catalog43204
NameNUSAT-5 (MARYAM)
Epoch Orbit11378
Epoch Day53.1668189
Epoch Year2020
RAAN182.9876
Inclination97.4226
Eccentricity0.0018097
Argument of Perigee144.874
Mean Anonmoly337.816
Mean Motion15.24470797
Decay Rate1.484E-05
L11 43204U 18015K 20053.16681890 .00001484 00000-0 63125-4 0 9995
L22 43204 97.4226 182.9876 0018097 144.8740 337.8160 15.24470797113783

Live tracking and technical data element details for NUSAT-5 (MARYAM) (NORAD 43204). NUSAT-5 (MARYAM) can be tracked NOW for your location showing map with azimuth and elevation plus other details from your city location.

Track the satellite on the map from your city or location and see movement details for azimuth, elevation, latitude, longitude, range, height, and movement on the map or in text.







IsCatalogInMostPopularTable: catalog: 43204, numindb: 389
Update: records affected: 1



GetName: 43204 NUSAT-5 (MARYAM)

Hit Count: updated at: Sun, 23 Feb 2020 08:03:17 GMT